Location: Chuathbaluk
(61.5726°N, 159.2454°W)
Time: 14:18:17
(UTC+00:00)

ITAMSAT 1 - Pass Details

Date: 17 January 2021
Orbit: 784 x 796 km, 98.9° (Epoch: 01 March)

Event Time Altitude Azimuth Distance (km) Brightness Sun altitude
Rises 03:06:13 0° 144° (SE) 3,279 10.8 -7.0°
Reaches altitude 10° 03:08:33 10° 140° (SE) 2,352 10.0 -7.2°
Maximum altitude 03:13:39 60° 62° (ENE) 904 7.7 -7.7°
Drops below altitude 10° 03:18:46 10° 344° (NNW) 2,360 10.0 -8.3°
Sets 03:21:07 0° 341° (NNW) 3,292 10.8 -8.5°
